GFSSGP_con_sbcape_276.txt.gz
CAPE
6 0 0 1 202 204 305 425 521 497 633 1093 990 914 1017 1223 887 1168 1163 886 926 1666 1804 1892 1977 1880 1961 1817 1933 2077 2263 2165 1713 1184 812 360 427 312 417 410 345 347 223 0 0 0 0 0 0
0 0 0 0 53 171 242 477 573 758 1320 1139 1049 922 913 1210 591 1586 1372 932 1308 1512 1760 1767 1814 1767 1689 1374 1750 2127 2085 1677 1348 888 375 223 290 350 428 393 365 320 54 0 0 0 0 0 0
0 0 0 11 162 140 158 361 739 1097 1122 940 839 934 1038 1548 663 1564 1745 1079 1456 1672 1720 2064 1803 1608 1478 1467 1812 2032 1654 1286 885 399 237 133 238 457 432 386 355 221 0 0 0 0 0 0 0
0 0 0 48 94 18 84 303 847 1089 1077 965 796 840 1461 1489 1337 1754 1573 1336 1404 1554 1640 1842 1713 1621 1425 1548 1590 1676 1394 1037 511 252 196 210 233 471 434 424 341 108 0 0 0 0 0 0 0
0 0 0 26 31 0 0 56 1031 1063 1103 1305 1023 776 1496 1495 1553 1476 1248 1033 895 1177 1516 1766 1489 1433 1565 1654 1600 1521 1241 742 471 256 122 130 283 498 471 370 203 49 0 0 0 0 0 0 0
0 0 14 117 5 0 5 28 786 1163 1462 1383 985 1117 1563 1453 1251 980 768 679 622 990 1232 1384 1216 1615 1694 1775 1551 1551 1117 519 350 278 144 71 200 382 343 210 27 19 0 0 0 0 0 0 0
0 0 1 0 1 1 112 409 786 1315 1608 1520 1159 1579 1572 1471 1174 838 771 813 808 892 918 1200 1152 1204 1530 1426 1258 1297 886 503 380 370 301 115 66 50 28 18 36 38 0 0 0 0 0 0 0
0 0 0 0 0 389 526 864 1219 1328 1084 1132 1217 1491 1519 1550 1105 1014 950 858 1125 1259 1275 1152 1266 1343 1168 1148 1100 1049 615 444 382 302 231 136 60 39 9 90 30 23 0 0 0 0 0 0 0
0 0 0 0 0 184 828 1056 1283 1507 1887 1904 1749 1826 1516 1070 871 942 843 1083 1071 752 972 944 915 1286 1300 950 850 740 456 345 278 258 325 117 18 2 0 0 0 10 15 0 0 0 0 0 0
0 0 0 7 0 588 1096 1060 1224 1481 1665 1501 1252 1067 1068 1085 901 881 732 719 569 392 235 362 787 864 958 1073 839 352 281 0 8 100 132 126 178 106 30 101 12 9 26 0 0 0 0 0 0
108 281 57 10 459 897 1334 1463 1286 1447 1463 1302 1202 894 861 871 463 643 564 290 263 167 206 320 395 382 407 963 549 121 379 144 26 111 269 250 196 188 157 286 311 298 26 28 0 3 4 0 0
424 438 296 211 298 831 1210 1161 996 1300 869 568 432 366 147 88 180 210 144 240 343 356 271 151 143 237 426 439 438 205 14 0 0 24 155 230 349 280 341 258 195 189 106 34 16 23 0 0 0
571 643 636 673 886 1010 956 838 699 511 391 314 142 120 93 65 32 38 40 73 209 160 124 65 68 90 132 146 27 0 0 4 24 39 105 181 243 250 201 161 157 112 45 22 12 0 0 0 1
559 701 664 734 822 826 791 566 427 375 342 184 93 69 45 36 53 82 34 36 22 100 116 65 31 25 41 44 25 20 60 82 63 59 86 50 54 37 98 11 10 0 0 0 0 0 0 3 5
586 633 626 618 715 797 756 662 296 164 261 213 115 74 16 28 39 14 6 10 10 48 81 75 53 82 51 36 17 17 0 0 1 26 15 18 14 11 9 5 3 2 1 1 0 0 7 9 0
86 46 386 780 864 645 745 417 324 305 320 230 181 100 53 20 11 12 14 11 6 4 2 2 0 3 8 19 12 5 5 3 7 14 3 11 1 12 12 38 5 13 16 2 7 4 0 2 0
33 324 504 624 967 801 902 362 163 206 272 316 266 101 53 13 13 7 1 1 0 0 0 0 3 1 4 9 10 1 0 3 1 1 0 0 0 0 6 34 40 10 2 6 1 1 0 0 0
158 377 541 685 647 795 501 214 198 177 310 293 207 81 11 7 6 3 0 1 5 10 6 3 1 4 6 6 3 5 8 19 46 29 22 0 0 0 0 21 64 69 101 10 1 0 0 0 0
140 350 546 539 429 406 474 340 237 144 152 54 9 8 15 11 8 6 2 12 17 20 13 7 10 13 6 10 7 7 10 24 38 43 49 57 36 45 61 49 77 124 117 188 118 16 0 2 4
190 391 606 554 534 489 363 220 81 64 76 12 6 10 14 78 61 18 17 12 14 9 6 8 17 27 17 7 22 26 33 34 48 49 56 60 43 43 50 67 82 92 115 175 188 165 15 0 42
46 106 347 337 437 426 341 322 139 81 27 28 63 91 168 162 72 58 31 8 6 4 3 6 11 20 14 3 9 14 22 28 31 37 40 64 76 78 82 83 98 120 120 137 242 229 59 118 122
96 0 92 349 335 260 434 145 505 274 55 20 88 168 184 214 88 9 2 0 3 2 1 22 25 10 2 3 15 42 41 46 56 50 51 65 78 82 77 104 118 140 124 134 237 210 194 165 104
20 41 95 227 233 201 320 277 546 405 226 96 176 85 164 114 46 3 0 0 0 11 22 30 6 3 3 26 52 58 62 54 50 56 76 79 114 88 77 115 126 136 133 134 177 177 186 135 183
102 130 138 254 138 101 207 160 429 332 456 267 182 134 125 20 11 0 3 21 29 30 33 7 0 11 40 58 75 87 84 75 73 82 74 53 55 79 102 112 130 170 163 149 157 179 204 257 132
4 98 98 119 120 135 250 78 526 291 273 234 228 83 25 27 1 11 55 69 71 17 0 0 15 46 59 75 83 84 94 98 90 99 85 111 82 91 155 180 181 184 161 160 188 206 201 167 98
5 5 68 5 17 23 149 152 282 109 146 275 150 7 0 0 2 1 78 44 49 17 0 0 29 48 63 73 94 102 95 83 94 91 113 99 148 183 175 199 182 183 184 211 219 208 194 134 102
11 16 0 0 29 34 88 317 138 33 33 66 21 8 0 0 13 26 74 19 0 3 6 40 51 59 69 88 80 89 80 126 126 121 123 104 132 165 189 191 202 196 230 223 161 91 196 217 174
0 0 0 23 4 1 61 181 185 153 79 69 53 0 5 37 9 48 11 0 0 6 23 26 47 68 80 68 71 92 82 65 44 55 83 98 115 144 147 164 169 185 194 147 99 45 4 5 54
0 2 0 0 0 94 174 304 125 273 343 254 98 72 79 39 34 2 0 0 14 22 21 42 60 33 69 69 76 71 34 46 68 90 69 92 115 118 113 112 93 86 70 91 37 0 0 2 4
0 6 48 199 159 220 226 267 227 250 243 250 114 74 43 13 0 0 1 13 24 32 39 53 64 61 68 64 37 22 69 70 75 67 67 18 20 71 82 40 0 0 0 38 24 24 6 2 20

GFSSGP_con_sbcape_279.txt.gz
CAPE
5 0 0 0 154 132 188 328 67 23 531 800 878 863 998 1063 1150 890 1054 750 1898 1944 1980 1627 2093 1713 1778 2001 1444 1457 1585 1754 1491 1189 768 395 463 371 571 519 417 291 62 0 0 0 0 0 0
0 0 0 0 2 10 432 92 10 185 870 874 855 575 960 1002 1229 1018 795 829 1560 1742 1851 1836 1773 1582 1557 1705 1933 1904 1659 1497 1270 909 357 172 335 511 561 570 463 144 0 0 0 0 0 0 0
0 0 0 6 4 88 217 30 30 264 691 570 548 716 1386 1606 1196 1321 1055 1145 868 1761 1888 1997 1622 1501 1548 1618 1700 1554 1582 1444 952 399 134 106 253 574 563 531 367 68 0 0 0 0 0 0 0
0 0 0 44 1 120 152 58 153 363 396 269 610 1455 1508 1856 1415 1393 1368 1000 586 1690 2007 1847 1437 1332 1461 1265 1164 1405 1423 1012 452 197 117 120 169 518 561 488 301 11 0 0 0 0 0 0 0
0 0 12 110 60 55 21 104 454 274 580 547 515 1169 1740 1779 1385 1208 970 486 1453 1384 1606 1663 1546 1521 1501 1428 1168 1438 1254 585 312 177 163 158 323 528 471 349 62 7 0 0 0 0 0 0 0
0 0 6 0 13 13 0 0 360 186 572 389 806 1168 1733 1710 899 613 559 633 1107 1035 1120 1246 1433 1600 1604 1653 1350 1218 915 522 322 171 183 159 275 343 147 75 67 11 0 0 0 0 0 0 0
0 6 45 109 17 46 124 8 100 602 706 1145 1067 1394 1751 1520 1006 776 604 695 866 806 984 1021 1135 1214 1348 1320 1088 1051 597 475 319 386 364 244 178 123 52 44 51 29 0 0 0 0 0 0 0
0 5 83 55 110 309 393 667 1158 1466 1426 1404 1537 1495 1607 1218 1028 937 1325 1058 1152 1121 951 1106 1437 1190 1114 1038 735 853 609 493 354 242 200 248 163 77 28 264 101 29 0 0 0 0 0 0 0
0 0 9 19 151 353 643 1236 1829 2104 2206 2200 2093 1966 1474 1121 1302 1063 1261 1101 774 668 568 576 699 1241 1282 1119 848 744 382 312 271 200 227 376 7 2 0 68 24 6 0 0 0 0 0 0 0
5 38 87 74 292 616 879 1480 1864 2007 1851 1499 1376 1429 1368 1305 1173 980 906 561 556 795 692 671 646 873 1036 1059 900 563 44 18 133 23 3 43 227 230 142 120 52 65 98 0 0 0 0 0 0
207 285 74 426 855 1144 1429 1621 1795 2035 1552 1353 1150 876 623 847 927 789 538 533 709 581 494 248 384 760 635 963 1387 484 46 178 58 306 435 755 364 321 239 203 372 282 168 201 5 26 18 8 0
361 393 249 487 537 1107 1589 1656 1228 1107 619 436 284 350 297 182 238 498 401 350 296 276 253 183 213 303 610 457 426 195 4 16 102 206 688 582 526 640 739 426 670 425 138 28 181 0 0 0 0
496 568 672 1024 1257 1409 1362 1141 809 511 235 240 234 174 167 129 128 140 184 202 158 221 156 122 177 136 170 274 108 22 19 18 28 52 85 79 145 237 154 143 237 144 103 1 0 0 0 0 0
548 686 817 964 1125 1169 1145 958 804 486 212 214 212 133 119 145 48 48 98 168 200 233 184 92 156 209 150 90 82 72 99 108 25 13 13 35 51 40 65 100 80 7 1 1 0 0 0 0 0
565 677 765 904 936 1016 1145 851 429 388 248 181 207 218 107 18 19 21 20 13 7 5 9 14 7 2 20 6 34 18 22 55 3 6 0 48 12 34 65 52 22 2 2 1 2 0 0 0 2
487 417 340 668 709 937 614 964 563 366 363 181 146 59 8 12 9 7 5 2 3 0 1 5 7 23 25 13 6 13 10 23 13 16 2 3 0 3 5 7 19 26 20 12 6 13 0 0 0
79 14 223 529 773 763 787 982 533 589 637 340 268 11 12 11 4 1 1 0 0 6 11 5 3 2 5 6 7 14 30 22 39 30 11 0 0 0 0 0 0 2 6 5 3 2 0 0 0
67 113 108 226 524 675 655 713 619 565 360 332 17 10 10 5 2 0 0 9 10 14 20 29 31 15 11 6 5 3 6 11 40 72 79 67 67 47 84 57 93 69 79 43 27 50 0 0 0
38 24 104 198 364 398 674 603 533 405 242 104 37 19 4 0 0 11 2 15 22 39 23 58 53 43 7 0 1 4 5 16 29 57 67 47 50 41 84 40 50 90 126 166 152 109 60 42 5
50 104 0 456 432 395 578 664 387 329 367 94 6 59 55 65 46 19 30 24 3 5 26 69 60 45 28 1 8 13 12 15 32 46 69 108 68 77 63 132 95 103 80 185 140 197 237 96 50
56 80 9 64 197 370 544 610 495 281 242 108 49 114 116 131 99 18 10 24 31 42 58 65 57 57 38 25 21 34 30 31 24 29 42 49 55 115 143 146 184 98 148 111 182 281 244 113 108
76 10 5 83 208 151 636 274 563 371 248 175 178 193 147 174 38 8 39 27 50 55 53 55 57 41 27 42 65 64 60 51 53 99 121 109 90 118 132 134 127 143 134 231 171 206 315 258 189
84 48 96 106 216 177 275 84 530 513 255 179 340 149 218 28 1 12 27 44 76 43 120 49 42 40 43 71 76 51 68 58 83 77 113 163 189 159 108 133 131 170 169 226 208 218 343 404 272
29 62 112 138 160 179 351 378 602 658 434 429 198 148 5 0 0 0 11 46 53 26 11 21 56 92 44 126 124 91 106 91 75 111 78 102 106 100 145 154 181 196 265 237 248 270 308 365 404
112 102 67 122 79 128 235 262 355 437 406 452 307 10 0 0 0 8 40 22 24 8 2 13 21 43 52 59 75 97 114 106 107 138 94 96 108 112 221 204 235 216 232 213 257 261 282 364 396
25 88 115 53 2 13 83 371 126 202 313 231 115 102 3 0 0 23 42 31 11 0 0 8 15 21 32 78 92 89 87 72 73 90 84 72 107 131 180 199 209 196 207 255 253 169 233 335 505
0 33 0 0 60 123 364 373 233 248 276 198 211 9 1 47 30 61 64 12 0 2 33 7 10 29 60 62 70 76 74 76 59 47 46 96 133 112 114 196 203 204 219 183 172 132 108 299 394
3 0 0 26 53 38 296 333 299 126 133 241 148 122 92 51 31 14 11 0 31 37 8 14 27 74 49 66 53 58 75 65 81 84 78 62 144 115 161 155 150 182 173 131 131 12 9 45 69
0 18 32 78 377 140 192 461 166 101 97 211 224 138 43 35 29 15 35 46 7 7 40 48 53 49 59 52 42 58 47 45 63 77 63 57 51 102 96 65 20 14 59 86 94 1 7 11 34
11 20 133 295 211 323 256 498 66 61 64 33 57 36 35 33 23 16 32 0 3 2 18 19 53 21 28 36 62 60 8 14 76 90 48 54 40 63 61 54 48 36 12 68 78 59 39 51 47

GFSSGP_con_sbcape_285.txt.gz
CAPE
4 0 0 0 8 1 0 0 188 416 531 611 625 371 299 326 336 214 415 98 1288 1228 1204 1566 2503 2394 2372 2191 1986 1696 1663 1630 1136 902 722 725 780 593 463 424 341 246 0 0 0 0 0 0 0
0 0 0 0 9 21 4 6 39 52 274 712 1088 782 740 450 1163 1287 1052 1270 1191 1048 1262 1543 2386 2591 1979 1766 2012 1973 1744 1089 798 718 486 476 782 682 402 420 371 89 0 0 0 0 0 0 0
0 0 0 0 0 12 8 2 8 42 282 722 1075 729 732 477 611 1054 1345 1455 1428 1153 1240 1603 2295 2384 2018 1530 1791 1908 1560 1023 659 342 433 479 799 665 376 417 357 31 0 0 0 0 0 0 0
0 0 0 2 1 3 20 36 86 97 182 66 88 742 557 554 1087 1370 1784 1694 1299 1098 1319 2066 2319 2076 2138 1533 1497 1454 1096 832 655 304 333 553 675 734 398 361 314 19 19 0 0 0 0 0 0
0 0 0 0 29 16 49 78 57 186 138 179 286 788 432 272 1367 1712 1568 1418 1265 1130 1232 1601 2236 1978 1912 1317 1505 993 888 826 686 457 271 307 856 767 476 283 0 0 0 0 0 0 0 0 0
0 0 0 8 2 0 0 2 4 28 205 228 889 798 1144 878 743 993 1097 1140 1012 1001 1029 1186 2058 2158 1825 1656 1315 1135 1089 861 807 715 642 494 764 767 582 367 22 20 18 4 0 0 0 0 0
0 0 0 41 16 0 38 102 33 13 269 69 316 675 760 834 790 743 655 737 876 773 939 921 1214 1363 1366 1273 1486 1292 1097 922 872 762 785 887 657 635 590 535 346 46 21 0 0 0 0 0 0
0 0 0 35 78 1 0 78 19 147 313 0 182 581 667 802 439 263 220 262 77 67 235 872 926 801 675 887 957 958 721 755 896 826 805 782 683 638 610 496 551 190 136 59 21 0 0 0 0
0 0 0 0 2 231 70 923 693 1010 903 596 579 545 562 430 320 323 233 86 70 77 27 208 325 238 545 662 728 677 540 436 543 360 612 402 27 68 93 295 429 632 183 100 32 3 0 32 108
0 0 0 0 30 211 106 0 393 1184 781 474 504 370 206 267 163 166 88 18 32 50 53 82 275 323 442 715 175 33 14 9 1 1 0 0 59 225 183 256 366 425 198 198 161 82 0 0 0
8 0 65 332 600 136 174 204 302 508 561 419 449 149 130 85 34 78 55 79 60 11 5 3 11 50 114 142 35 31 33 0 0 0 0 25 27 31 50 46 153 140 137 0 14 0 0 0 0
155 384 997 590 848 873 352 369 286 344 319 272 80 38 35 26 29 48 95 19 21 47 5 1 0 4 3 24 0 0 0 0 0 0 0 0 0 0 13 0 1 1 0 0 0 0 0 0 0
106 582 699 322 349 295 241 235 242 308 245 164 17 6 26 4 5 4 0 0 0 0 0 0 0 0 0 0 0 0 17 0 0 0 0 0 0 0 0 0 0 0 0 0 0 0 0 0 0
51 189 104 0 45 443 272 177 96 175 134 17 14 2 2 2 2 0 0 0 0 0 0 0 0 0 0 0 0 0 0 0 0 0 0 0 0 0 0 0 0 0 0 0 0 0 0 0 0
8 3 70 0 0 15 15 163 98 87 31 19 9 6 2 2 0 0 0 0 0 0 0 0 0 0 0 0 0 0 0 0 0 0 0 0 0 0 0 0 0 0 0 0 0 0 0 0 0
24 76 3 0 2 0 0 0 49 44 28 7 5 7 3 1 0 0 0 0 0 0 0 0 0 0 0 0 0 5 3 6 3 1 0 0 0 0 0 0 0 0 0 0 1 0 0 0 0
6 13 0 1 0 0 0 30 58 70 56 24 4 2 0 0 0 0 0 0 0 0 0 0 0 0 0 0 0 0 0 0 29 50 46 30 19 11 0 0 0 0 0 0 0 0 0 0 0
66 8 10 8 0 0 0 0 185 11 5 14 7 0 0 0 0 0 0 0 0 0 0 0 0 0 0 0 0 0 0 0 33 32 19 21 8 6 2 0 0 20 20 11 10 0 0 3 0
33 38 21 7 15 3 31 107 147 86 16 0 0 5 0 0 0 0 2 3 2 0 2 7 2 0 0 0 0 0 0 0 12 6 14 10 22 23 12 0 0 0 9 5 7 28 23 0 0
52 7 20 61 83 4 0 10 57 34 30 47 37 26 1 0 5 19 14 11 8 19 14 8 23 0 0 0 5 1 0 0 9 11 24 29 32 24 0 1 6 9 3 0 7 26 12 2 5
0 0 0 0 0 18 1 2 2 38 6 40 100 73 10 14 0 7 0 0 0 13 21 53 1 0 0 3 2 0 0 0 0 2 3 5 33 30 0 0 1 4 0 0 2 6 13 4 1
0 0 0 0 0 1 40 17 13 0 4 151 114 37 11 23 1 0 0 0 23 2 1 0 0 0 2 23 1 0 3 5 3 13 16 21 18 35 2 30 41 4 4 0 0 36 14 1 15
0 0 0 0 0 5 35 74 8 0 0 100 100 39 40 0 1 4 14 72 98 53 10 9 0 0 0 9 12 20 23 36 42 35 28 20 17 21 35 25 48 34 0 0 0 0 11 1 25
0 0 0 0 0 4 44 5 29 56 113 100 1 4 11 13 2 20 54 43 7 0 0 1 0 0 0 14 36 26 3 2 2 5 9 10 1 1 0 0 0 0 0 0 4 4 17 19 16
0 0 0 0 0 92 19 2 60 160 145 49 6 35 29 3 2 24 3 1 0 0 0 0 0 0 0 9 25 3 0 0 0 0 0 0 0 0 0 0 6 10 21 29 9 0 0 27 26
0 0 0 0 0 7 39 155 9 111 141 85 52 30 1 0 0 0 0 0 0 0 0 0 0 9 15 9 0 2 0 0 0 0 0 0 0 4 2 11 47 115 71 21 0 0 0 1 0
0 0 0 0 0 35 12 5 77 153 139 29 15 1 0 3 0 0 0 0 0 0 0 0 1 11 1 5 12 0 0 0 0 1 4 0 0 44 7 8 40 44 41 4 0 0 0 0 0
0 0 0 0 1 33 13 2 64 53 15 2 3 0 1 0 0 0 0 0 0 0 0 1 0 1 9 12 1 2 0 1 7 5 4 12 0 13 22 0 0 9 15 9 0 0 0 0 0
0 0 0 0 5 8 17 6 4 3 0 0 0 0 0 0 0 0 0 0 0 0 0 1 3 3 13 1 3 10 12 12 9 3 7 14 0 10 26 1 0 0 0 0 0 0 4 6 1
0 0 0 17 23 0 11 32 1 0 0 0 0 0 0 0 0 0 0 0 0 0 4 8 2 1 0 0 0 6 5 2 6 10 7 19 5 0 5 2 1 0 0 0 0 18 12 12 4

GFSSGP_con_sbcape_291.txt.gz
CAPE
265 139 0 0 0 20 3 31 13 259 437 403 634 872 836 703 305 4 0 0 0 1176 1625 2039 2738 2156 1979 1773 1747 1590 1134 809 635 520 399 340 359 220 272 584 573 251 129 70 10 0 0 0 0
0 0 0 0 0 11 18 6 66 181 325 691 874 747 626 594 533 321 126 59 227 963 1512 2026 2377 2077 1745 1726 1757 1428 1042 788 662 561 393 319 289 255 307 382 287 192 126 69 12 0 0 0 0
0 0 0 0 0 0 48 127 130 40 122 393 465 625 1010 528 279 293 348 649 1015 1243 1461 1832 2063 2033 1917 1865 1611 1225 928 742 595 534 394 279 292 360 477 329 269 172 66 11 3 0 0 0 0
0 0 0 0 0 0 46 48 74 8 90 404 464 911 1265 1064 660 774 999 1361 1086 1453 1613 1642 1835 1868 1767 1761 1428 1087 838 715 632 583 499 251 287 331 363 306 247 147 37 0 0 0 0 0 0
0 0 0 0 0 9 32 14 0 383 203 648 832 898 794 1266 1521 1551 1422 1298 1154 1034 1307 1729 1740 1621 1560 1485 1177 891 716 665 609 578 563 298 310 322 290 254 244 140 48 0 0 0 0 0 5
0 0 0 0 0 0 0 0 0 267 590 470 807 794 663 587 1143 1136 1206 986 960 1101 1102 1354 1565 1554 1372 1250 980 748 620 557 532 609 595 494 294 212 188 197 226 195 72 1 0 0 2 49 155
0 0 0 0 2 16 14 0 37 36 27 241 690 916 361 142 108 87 93 366 644 756 804 747 781 1113 1162 1046 882 701 670 610 640 838 806 586 457 275 218 234 169 148 123 59 26 29 62 192 293
0 0 0 0 0 0 1 61 281 521 503 249 392 828 418 120 28 73 86 134 203 188 177 278 386 459 536 515 811 698 636 565 547 560 697 613 427 460 442 737 442 181 144 90 53 67 132 106 161
0 0 0 27 51 138 109 483 699 391 178 195 404 272 159 56 48 29 35 50 45 52 16 77 300 529 353 425 297 175 135 39 23 75 225 50 74 79 117 298 485 459 268 169 160 161 84 2 0
0 1 11 93 193 82 179 555 251 538 234 180 174 134 58 30 33 46 44 63 48 64 45 3 1 3 26 92 0 0 0 0 0 0 0 0 0 71 173 208 536 398 394 339 119 10 0 0 0
400 60 238 238 221 208 65 302 484 252 81 157 112 98 47 13 17 22 8 3 2 0 0 0 0 0 0 0 0 0 0 0 0 0 0 0 0 0 0 0 34 45 15 0 0 0 0 0 0
485 654 386 361 173 175 305 207 161 38 212 40 27 9 1 1 2 1 0 0 0 0 0 0 0 0 0 0 0 0 0 0 0 0 0 0 0 0 0 0 1 0 1 0 0 0 0 0 0
531 615 291 251 150 166 167 76 28 81 38 4 6 5 2 0 0 0 0 0 0 0 0 0 0 0 0 0 0 0 0 0 0 0 0 0 0 0 0 0 0 0 0 0 0 0 0 0 0
290 565 320 230 150 196 150 82 37 49 1 1 0 1 0 0 0 0 0 0 0 0 0 0 0 0 0 0 0 0 0 0 0 0 0 0 0 0 0 0 0 0 0 0 0 0 0 0 0
587 402 353 238 218 161 51 133 43 1 3 1 2 0 0 0 0 0 0 0 0 0 0 0 0 0 0 0 0 0 0 0 0 0 0 0 0 0 0 0 0 0 0 0 7 1 0 0 0
6 161 254 306 164 181 39 197 33 3 4 4 0 0 0 0 0 0 0 0 0 0 0 0 0 0 0 0 0 0 0 0 0 0 0 0 0 0 0 0 0 0 0 1 32 35 1 0 0
0 1 28 21 3 29 38 129 16 17 18 3 1 0 0 0 0 0 0 0 0 0 0 0 0 0 0 0 0 0 0 0 0 0 0 17 11 7 0 0 0 0 0 0 2 16 2 0 0
0 2 0 0 40 52 84 49 7 1 25 2 0 0 0 0 0 0 0 0 0 0 0 0 0 0 0 0 0 0 0 0 0 0 4 5 2 17 5 0 0 0 0 0 0 0 2 7 0
0 5 10 0 0 0 0 0 3 0 8 0 0 0 0 0 0 0 6 4 0 0 0 0 0 0 0 0 0 0 0 0 0 0 0 2 16 39 14 0 0 0 0 0 0 0 2 0 5
1 0 0 0 0 0 0 8 5 41 19 0 0 0 0 0 0 1 0 0 0 0 0 0 0 0 0 0 0 0 0 0 0 0 5 11 27 12 3 0 0 0 0 0 0 0 0 0 2
0 0 0 2 0 0 2 15 23 61 98 82 9 4 0 0 6 1 0 0 0 0 0 0 0 0 0 0 0 0 0 0 0 0 1 1 12 70 17 0 0 0 0 0 0 0 0 0 0
0 0 0 0 0 4 0 15 3 1 63 210 138 43 0 0 1 0 0 0 0 0 0 0 0 0 0 0 0 0 0 0 0 0 0 0 2 10 0 0 0 0 0 0 0 0 0 0 0
0 0 0 0 0 0 0 17 53 1 92 226 79 2 0 27 6 2 0 0 0 0 0 0 0 0 0 0 0 0 0 0 0 0 0 0 0 0 0 0 0 0 0 0 0 0 0 0 0
0 0 0 0 0 0 0 0 0 27 42 208 19 19 30 42 15 10 0 0 0 0 0 0 0 0 0 0 0 0 0 0 0 0 0 0 0 0 0 0 0 0 1 0 0 0 0 0 0
0 0 0 0 0 12 0 0 0 3 77 66 5 12 18 5 0 0 0 0 0 0 0 0 0 0 0 0 0 0 0 0 0 0 0 0 0 0 0 0 0 31 19 0 0 0 0 0 0
0 0 0 0 0 0 0 0 0 55 33 0 0 0 0 0 0 0 0 0 0 0 0 0 0 0 0 0 0 0 0 0 0 0 0 0 0 0 13 1 35 43 11 0 0 0 0 0 0
0 0 0 0 0 0 0 5 107 16 0 0 0 0 0 0 0 0 0 0 0 0 0 0 0 0 0 0 0 0 0 0 0 0 0 0 0 10 3 0 7 26 2 0 0 0 0 0 0
0 0 0 0 0 0 0 0 14 39 0 0 0 0 0 0 0 0 0 0 0 0 0 0 0 0 0 0 0 0 0 0 0 0 0 0 0 0 0 0 2 0 0 0 1 0 0 0 0
0 0 0 0 0 0 0 0 0 17 0 0 0 0 0 0 0 0 0 0 0 0 0 0 0 0 0 0 0 0 0 0 0 0 0 0 0 0 0 0 0 0 0 0 2 23 9 2 0
0 0 0 0 0 0 0 0 0 0 0 0 0 0 0 0 0 0 0 0 0 0 0 0 0 0 0 0 0 0 0 0 0 0 0 0 0 0 0 0 0 0 0 0 0 14 11 6 0